Starlink 31368

operational
NORAD ID: 58970 Int'l Des: 2024-031 Owner: SPXS Country: US Constellation: starlink
LEOCIRCULAR

About Starlink 31368

Description loading...

Live Position

Loading 3D Globe...

Upcoming Passes

Altitude History

Altitude vs Time

uPlot chart will show altitude changes over time

Two-Line Element Set

1 58970U 24031F 25338.43924661 .00001544 00000-0 64264-4 0 9995
2 58970 53.1620 18.8694 0001457 87.4861 272.6306 15.30198536101958
Epoch: Dec 4, 2025 • Age: 16 hours

Current Status

Altitude 480.0 km
Velocity 7.63 km/s
Sub-Earth Point 49.63°N, 35.13°W
Launch Date Feb 15, 2024
Age 1.8 years
Type internet

Technical Details

Classification Payload
Mass 730.00 kg
Dry Mass 700.00 kg
Total Mass 730.00 kg
Length 0.30 m
Diameter 4.10 m
Span 29.00 m
Shape Box + pan
Manufacturer SPXS
Bus Type Starlink V2M
Phase Status In Orbit
Owner/State SPXS/US

Large Constellations

Loading constellations...